Flag for Austria Weather past 2 weeks in Ternitz, Lower Austria, Austria

Now
26 °F

Chilly.


Feels Like: 26 °F
Forecast: 26 / 36 °F
Wind: 2 mph from Northwest

Location: Eisenstadt

Current Time: Feb 1, 2015 at 5:42:51 AM

Latest Report: Feb 1, 2015 at 5:00 AM


Visibility: N/A

Pressure: 29.23 "Hg

Humidity: 97%

Dew point: 26 °F

Location of TernitzLocation

Historic Weather in Ternitz — Graph

°F

Ternitz temperature yesterday

Maximum temperature yesterday: 40 °F (at 1:00 PM)
Minimum temperature yesterday: 28 °F (at 11:00 PM)
Average temperature yesterday: 34 °F

Past Weeks' High & Low Weather Summary

 TemperatureHumidityPressure
High53 °F (Jan 17, 6:00 AM)99% (Jan 20, 4:00 AM)30.31 "Hg (Jan 20, 4:00 AM)
Low26 °F (Jan 27, 3:00 AM)57% (Jan 31, 1:00 PM)28.82 "Hg (Jan 30, 4:00 PM)
Average37 °F81%29.87 "Hg
* Reported Jan 17 4:00 AM — Feb 1 4:00 AM, Ternitz, Weather by CustomWeather, © 2014

Note: Actual official high and low records may vary slightly from our data, if they occured in-between our weather recording intervals... More about our weather records

Advertising

Ternitz weather history for previous 24 hours

 ConditionsComfort  
Time TempWeatherWind HumidityBarometerVisibility
4:00 AM
Feb 1
27 °FChilly.1 mph94%29.23 "HgN/A
3:00 AM26 °FChilly.1 mph93%29.23 "HgN/A
2:00 AM26 °FChilly.1 mph91%29.23 "HgN/A
1:00 AM27 °FPassing clouds.3 mph91%29.23 "Hg9 mi
12:00 AM27 °FChilly.2 mph90%29.23 "HgN/A
11:00 PM
Jan 31
28 °FChilly.No wind91%29.23 "HgN/A
10:00 PM29 °FClear.2 mph90%29.23 "Hg9 mi
9:00 PM29 °FChilly.3 mph89%29.23 "HgN/A
8:00 PM30 °FChilly.2 mph88%29.23 "HgN/A
7:00 PM31 °FPassing clouds.2 mph86%29.21 "Hg9 mi
6:00 PM32 °FChilly.3 mph83%29.21 "HgN/A
5:00 PM36 °FChilly.2 mph70%29.18 "HgN/A
4:00 PM39 °FPassing clouds.2 mph62%29.15 "Hg12 mi
3:00 PM38 °FChilly.5 mph61%29.15 "HgN/A
2:00 PM40 °FChilly.2 mph65%29.12 "HgN/A
1:00 PM40 °FOvercast.2 mph57%29.12 "Hg12 mi
12:00 PM40 °FChilly.2 mph60%29.12 "HgN/A
11:00 AM39 °FChilly.1 mph63%29.12 "HgN/A
10:00 AM38 °FChilly.1 mph63%29.09 "HgN/A
9:00 AM34 °FChilly.2 mph74%29.09 "HgN/A
8:00 AM32 °FChilly.2 mph84%29.06 "HgN/A
7:00 AM31 °FOvercast.1 mph83%29.03 "Hg9 mi
6:00 AM30 °FPassing clouds.3 mph84%29.00 "Hg6 mi
5:00 AM29 °FPassing clouds.2 mph85%29.00 "Hg6 mi
Weather by CustomWeather, © 2014

See weather overviewHow to use our weather pages